• En España
  • Lista de países
  • Para 7 días
  • Temperatura del agua
  • Mapa Satelital
  • El tiempo en el mapa
  • Informadores
  • user-avatar
    Iniciar sesión

    Tiempo cada hora Irnur

    Hoy, 19 Agosto, Domingo

    Tiempo Temperatura Precipitaciones Viento Presión Humedad
    00:00 +11°C° 0 mm 1 mps 755 mmHg 87%
    01:00 +10°C° 0 mm 0 mps 755 mmHg 87%
    02:00 +9°C° 0 mm 0 mps 755 mmHg 88%
    03:00 +9°C° 0 mm 0 mps 755 mmHg 88%
    04:00 +10°C° 0 mm 0 mps 755 mmHg 86%
    05:00 +11°C° 0 mm 0 mps 755 mmHg 83%
    06:00 +11°C° 0 mm 0 mps 755 mmHg 81%
    07:00 +13°C° 0 mm 0 mps 755 mmHg 75%
    08:00 +15°C° 0 mm 0 mps 755 mmHg 68%
    09:00 +17°C° 0 mm 0 mps 755 mmHg 60%
    10:00 +18°C° 0 mm 0 mps 755 mmHg 57%
    11:00 +21°C° 0 mm 1 mps 754 mmHg 53%
    12:00 +22°C° 0 mm 1 mps 754 mmHg 49%
    13:00 +22°C° 0 mm 1 mps 754 mmHg 49%
    14:00 +22°C° 0 mm 1 mps 754 mmHg 48%
    15:00 +22°C° 0 mm 1 mps 753 mmHg 47%
    16:00 +22°C° 0 mm 1 mps 753 mmHg 53%
    17:00 +21°C° 0 mm 1 mps 753 mmHg 58%
    18:00 +20°C° 0 mm 1 mps 752 mmHg 63%
    19:00 +18°C° 0 mm 1 mps 752 mmHg 66%
    20:00 +16°C° 0 mm 1 mps 752 mmHg 69%
    21:00 +14°C° 0 mm 2 mps 752 mmHg 72%
    22:00 +14°C° 0 mm 2 mps 752 mmHg 74%
    23:00 +13°C° 0 mm 2 mps 752 mmHg 76%

    Mañana, 20 Agosto, Lunes

    Tiempo Temperatura Precipitaciones Viento Presión Humedad
    00:00 +13°C° 0 mm 2 mps 752 mmHg 78%
    01:00 +13°C° 0 mm 2 mps 752 mmHg 81%
    02:00 +12°C° 0 mm 2 mps 751 mmHg 84%
    03:00 +12°C° 0 mm 2 mps 751 mmHg 86%
    04:00 +13°C° 0 mm 2 mps 751 mmHg 86%
    05:00 +13°C° 0 mm 2 mps 751 mmHg 86%
    06:00 +13°C° 0 mm 3 mps 750 mmHg 86%
    07:00 +14°C° 0 mm 3 mps 750 mmHg 80%
    08:00 +17°C° 0 mm 3 mps 750 mmHg 74%
    09:00 +19°C° 0 mm 4 mps 750 mmHg 69%
    10:00 +19°C° 0 mm 4 mps 749 mmHg 68%
    11:00 +20°C° 0 mm 4 mps 749 mmHg 67%
    12:00 +20°C° 0 mm 5 mps 749 mmHg 67%
    13:00 +21°C° 0,1 mm 4 mps 748 mmHg 67%
    14:00 +21°C° 0,1 mm 4 mps 748 mmHg 68%
    15:00 +22°C° 0,1 mm 4 mps 748 mmHg 69%
    16:00 +21°C° 0,5 mm 4 mps 747 mmHg 74%
    17:00 +20°C° 0,5 mm 3 mps 747 mmHg 80%
    18:00 +20°C° 0,5 mm 3 mps 747 mmHg 86%
    19:00 +19°C° 0,3 mm 3 mps 746 mmHg 89%
    20:00 +18°C° 0,3 mm 2 mps 746 mmHg 92%
    21:00 +17°C° 0,3 mm 2 mps 746 mmHg 95%
    22:00 +17°C° 0 mm 2 mps 746 mmHg 95%
    23:00 +16°C° 0 mm 2 mps 746 mmHg 95%

    Pasado mañana, 21 Agosto, Martes

    Tiempo Temperatura Precipitaciones Viento Presión Humedad
    00:00 +16°C° 0 mm 2 mps 746 mmHg 95%
    01:00 +16°C° 0 mm 2 mps 746 mmHg 95%
    02:00 +16°C° 0 mm 2 mps 746 mmHg 95%
    03:00 +16°C° 0 mm 2 mps 746 mmHg 94%
    04:00 +16°C° 0 mm 2 mps 746 mmHg 94%
    05:00 +16°C° 0 mm 2 mps 746 mmHg 93%
    06:00 +17°C° 0 mm 2 mps 746 mmHg 93%
    07:00 +18°C° 0,1 mm 2 mps 746 mmHg 89%
    08:00 +19°C° 0,1 mm 2 mps 745 mmHg 86%
    09:00 +20°C° 0,1 mm 2 mps 745 mmHg 83%
    10:00 +21°C° 0,7 mm 3 mps 745 mmHg 79%
    11:00 +22°C° 0,7 mm 3 mps 745 mmHg 75%
    12:00 +23°C° 0,7 mm 4 mps 744 mmHg 70%
    13:00 +25°C° 0,1 mm 4 mps 744 mmHg 67%
    14:00 +26°C° 0,1 mm 5 mps 743 mmHg 64%
    15:00 +26°C° 0,1 mm 5 mps 743 mmHg 61%
    16:00 +25°C° 0 mm 5 mps 742 mmHg 65%
    17:00 +25°C° 0 mm 4 mps 742 mmHg 69%
    18:00 +23°C° 0 mm 4 mps 741 mmHg 73%
    19:00 +22°C° 0 mm 4 mps 741 mmHg 75%
    20:00 +21°C° 0 mm 5 mps 741 mmHg 77%
    21:00 +20°C° 0 mm 5 mps 740 mmHg 78%
    22:00 +20°C° 0,3 mm 5 mps 740 mmHg 81%
    23:00 +19°C° 0,3 mm 5 mps 740 mmHg 85%

    22 Agosto, Miércoles

    Tiempo Temperatura Precipitaciones Viento Presión Humedad
    00:00 +19°C° 0,3 mm 4 mps 740 mmHg 88%
    01:00 +18°C° 0,9 mm 4 mps 740 mmHg 90%
    02:00 +16°C° 0,9 mm 5 mps 740 mmHg 92%
    03:00 +16°C° 0,9 mm 5 mps 740 mmHg 93%
    04:00 +15°C° 0,2 mm 4 mps 740 mmHg 92%
    05:00 +13°C° 0,2 mm 4 mps 741 mmHg 90%
    06:00 +12°C° 0,2 mm 4 mps 741 mmHg 89%
    07:00 +13°C° 0 mm 4 mps 741 mmHg 83%
    08:00 +14°C° 0 mm 4 mps 742 mmHg 77%
    09:00 +15°C° 0 mm 4 mps 742 mmHg 71%
    10:00 +17°C° 0 mm 4 mps 742 mmHg 65%
    11:00 +18°C° 0 mm 4 mps 742 mmHg 60%
    12:00 +19°C° 0 mm 4 mps 742 mmHg 54%
    13:00 +19°C° 0,1 mm 4 mps 743 mmHg 55%
    14:00 +19°C° 0,1 mm 4 mps 743 mmHg 56%
    15:00 +20°C° 0,1 mm 4 mps 743 mmHg 56%
    16:00 +18°C° 0,6 mm 4 mps 743 mmHg 65%
    17:00 +17°C° 0,6 mm 4 mps 744 mmHg 74%
    18:00 +14°C° 0,6 mm 4 mps 744 mmHg 82%
    19:00 +14°C° 0,4 mm 4 mps 745 mmHg 84%
    20:00 +13°C° 0,4 mm 4 mps 745 mmHg 87%
    21:00 +12°C° 0,4 mm 4 mps 746 mmHg 89%
    22:00 +11°C° 0 mm 4 mps 746 mmHg 89%
    23:00 +11°C° 0 mm 4 mps 746 mmHg 90%

    23 Agosto, Jueves

    Tiempo Temperatura Precipitaciones Viento Presión Humedad
    00:00 +10°C° 0 mm 4 mps 747 mmHg 90%
    01:00 +8°C° 0 mm 4 mps 747 mmHg 92%
    02:00 +8°C° 0 mm 4 mps 748 mmHg 93%
    03:00 +7°C° 0 mm 4 mps 748 mmHg 95%
    04:00 +8°C° 0 mm 4 mps 749 mmHg 94%
    05:00 +8°C° 0 mm 4 mps 750 mmHg 92%
    06:00 +8°C° 0 mm 4 mps 750 mmHg 91%
    07:00 +10°C° 0 mm 4 mps 751 mmHg 82%
    08:00 +12°C° 0 mm 5 mps 751 mmHg 73%
    09:00 +13°C° 0 mm 5 mps 751 mmHg 64%
    10:00 +14°C° 0 mm 5 mps 751 mmHg 60%
    11:00 +15°C° 0 mm 5 mps 752 mmHg 56%
    12:00 +16°C° 0 mm 5 mps 752 mmHg 52%
    13:00 +16°C° 0 mm 5 mps 752 mmHg 52%
    14:00 +16°C° 0 mm 5 mps 752 mmHg 51%
    15:00 +17°C° 0 mm 5 mps 752 mmHg 51%
    16:00 +17°C° 0 mm 4 mps 752 mmHg 56%
    17:00 +16°C° 0 mm 3 mps 752 mmHg 62%
    18:00 +15°C° 0 mm 2 mps 752 mmHg 67%
    19:00 +14°C° 0 mm 2 mps 753 mmHg 69%
    20:00 +13°C° 0 mm 2 mps 753 mmHg 71%
    21:00 +12°C° 0 mm 2 mps 753 mmHg 73%
    22:00 +12°C° 0 mm 2 mps 753 mmHg 72%
    23:00 +12°C° 0 mm 2 mps 753 mmHg 71%

    24 Agosto, Viernes

    Tiempo Temperatura Precipitaciones Viento Presión Humedad
    00:00 +12°C° 0 mm 2 mps 754 mmHg 70%
    01:00 +11°C° 0 mm 3 mps 754 mmHg 70%
    02:00 +11°C° 0 mm 3 mps 754 mmHg 71%
    03:00 +11°C° 0 mm 3 mps 754 mmHg 71%
    04:00 +11°C° 0 mm 3 mps 754 mmHg 73%
    05:00 +11°C° 0 mm 3 mps 754 mmHg 74%
    06:00 +11°C° 0 mm 3 mps 754 mmHg 76%
    07:00 +13°C° 0 mm 4 mps 754 mmHg 72%
    08:00 +15°C° 0 mm 4 mps 754 mmHg 67%
    09:00 +18°C° 0 mm 4 mps 754 mmHg 63%
    10:00 +19°C° 0 mm 4 mps 754 mmHg 59%
    11:00 +20°C° 0 mm 5 mps 754 mmHg 56%
    12:00 +22°C° 0 mm 5 mps 754 mmHg 52%
    13:00 +22°C° 0 mm 5 mps 754 mmHg 52%
    14:00 +22°C° 0 mm 4 mps 754 mmHg 52%
    15:00 +23°C° 0 mm 4 mps 754 mmHg 52%
    16:00 +22°C° 0 mm 4 mps 754 mmHg 58%
    17:00 +21°C° 0 mm 3 mps 754 mmHg 64%
    18:00 +19°C° 0 mm 2 mps 754 mmHg 70%
    19:00 +18°C° 0 mm 2 mps 754 mmHg 73%
    20:00 +17°C° 0 mm 2 mps 754 mmHg 76%
    21:00 +15°C° 0 mm 2 mps 754 mmHg 79%
    22:00 +15°C° 0 mm 2 mps 754 mmHg 80%
    23:00 +14°C° 0 mm 2 mps 755 mmHg 81%
    Mostrar más